Regional Weather Roundup
Issued by NWS

Home | Current Version | Previous Version | Text Only | Print | Product List | Glossary Off
Versions: 1 2 3 4 5 6 7 8 9 10 11 12 13 14 15 16 17 18 19 20 21 22 23 24 25 26 27 28 29 30 31 32 33 34 35 36 37 38 39 40 41 42 43 44 45 46 47 48 49 50

545
ASUS43 KLOT 061708
RWRIL

ILLINOIS REGIONAL WEATHER ROUNDUP
NATIONAL WEATHER SERVICE CHICAGO/ROMEOVILLE IL
1100 AM CST SAT FEB 06 2016

NOTE: "FAIR" INDICATES FEW OR NO CLOUDS BELOW 12,000 FEET WITH NO
SIGNIFICANT WEATHER AND/OR OBSTRUCTIONS TO VISIBILITY.

* THESE STATIONS ARE NOT UNDER NWS QUALITY CONTROL. THEY ALSO MAY NOT
  REPORT WEATHER SUCH AS PRECIPITATION OR FOG.

ILZ001-002-007-009-015-016-024-061800-
NORTHWEST ILLINOIS

CITY           SKY/WX    TMP DP  RH WIND       PRES   REMARKS
MOLINE         SUNNY     38  23  55 W8        30.24F WCI  32
STERLING*      SUNNY     39  28  65 SW5       30.22F
SAVANNA*       SUNNY     36  25  65 SW7       30.23F WCI  30
$$

ILZ003-004-008-010-011-017-018-061800-
NORTH CENTRAL ILLINOIS

CITY           SKY/WX    TMP DP  RH WIND       PRES   REMARKS
ROCKFORD       CLOUDY    32  26  78 SW9       30.25S WCI  24
FREEPORT*      CLOUDY    31  27  83 SW8       30.24F WCI  24
ROCHELLE*      PTSUNNY   34  29  84 W13       30.24F WCI  25
DE KALB*       CLOUDY    33  28  81 SW8       30.24S WCI  26
PERU*          SUNNY     37  30  75 SW7       30.27F WCI  31
$$

ILZ005-006-012>014-019>023-061800-
NORTHEAST ILLINOIS

CITY           SKY/WX    TMP DP  RH WIND       PRES   REMARKS
CHICAGO-OHARE  PTSUNNY   35  25  66 W17       30.24F WCI  25
CHICAGO-MIDWAY MOSUNNY   36  23  59 SW9       30.26F WCI  29
AURORA         CLOUDY    35  27  72 SW7       30.26S WCI  29
LANSING*       SUNNY     35  26  69 NW10      30.27F WCI  28
JOLIET*        SUNNY     37  27  67 W6        30.28R WCI  32
WAUKEGAN       CLOUDY    33  24  69 SW14G20   30.21F WCI  23
DUPAGE AIRPORT CLOUDY    34  25  69 SW10      30.24F WCI  26
KANKAKEE*      SUNNY     37  28  71 SW14      30.29S WCI  28
WHEELING       PTSUNNY   35  25  66 SW12      30.24F WCI  27
MORRIS*        SUNNY     36  28  72 W7        30.24F WCI  30
ROMEOVILLE*    SUNNY     35  26  70 W12       30.27S WCI  26
NORTHERLY ISL    N/A     35  22  59 W12         N/A  WCI  27
$$

LMZ740>746-061800-
SOUTHERN LAKE MICHIGAN

STATION/POSITION SKY/WX   TEMP    WIND        PRES    VSBY  WAVE
                          AIR SEA DIR/SP/G                  HT/PER
                          (F)     (DEG/KT/KT) (MB)    (MI)  (FT/S)
HARRISON CRIB              32     210/ 14/ 15   N/A
BURNHAM HARBOR             35     200/  8/ 13   N/A
CALUMET HARBOR             32     200/ 11/ 14 1024.3F
BURNS HARBOR               32     220/ 12/ 16 1026.1F
MICHIGAN CITY              31     180/ 10/ 12   N/A
$$

ILZ025>027-034>036-040-047-049-050-058-095>099-061800-
WEST-CENTRAL ILLINOIS

CITY           SKY/WX    TMP DP  RH WIND       PRES   REMARKS
QUINCY         SUNNY     42  25  50 SW5       30.26F
GALESBURG*     SUNNY     39  27  61 SW7       30.26S WCI  34
MACOMB*        SUNNY     39  27  60 SW3       30.28F
JACKSONVILLE*  SUNNY     43  30  60 S7        30.28F
PITTSFIELD*    SUNNY     41  28  59 S7        30.28F
$$

ILZ028>032-037-038-041>044-048-051>054-059>061-061800-
CENTRAL ILLINOIS

CITY           SKY/WX    TMP DP  RH WIND       PRES   REMARKS
PONTIAC        SUNNY     38  31  77 SW8       30.28F WCI  32
BLOOMINGTON    SUNNY     38  30  73 SW13      30.28F WCI  30
DECATUR        SUNNY     41  28  60 S7        30.30F
PEORIA         SUNNY     38  26  62 S8        30.27F WCI  32
LACON*         SUNNY     37  26  66 SW7       30.27F WCI  31
LINCOLN*       SUNNY     39  31  73 S7        30.29F WCI  34
SPRINGFIELD    SUNNY     42  28  57 S8        30.29F
TAYLORVILLE    SUNNY     37  30  75 S6        30.31S WCI  33
$$

ILZ033-039-045-046-055>057-062-063-061800-
EAST-CENTRAL ILLINOIS

CITY           SKY/WX    TMP DP  RH WIND       PRES   REMARKS
CHAMPAIGN      SUNNY     38  30  73 S8        30.30F WCI  32
RANTOUL*       SUNNY     39  30  71 SW10      30.30F WCI  32
MATTOON        SUNNY     39  27  62 S9        30.31F WCI  33
PARIS*         SUNNY     39  29  66 S5        30.33F
$$

ILZ079-100>102-061800-
SOUTHWEST ILLINOIS

CITY           SKY/WX    TMP DP  RH WIND       PRES   REMARKS
ALTON          SUNNY     41  27  56 SW6       30.32F
BELLEVILLE     SUNNY     44  27  52 S5        30.31F
CAHOKIA*       SUNNY     44  23  43 VRB3      30.32F
SPARTA*        SUNNY     48  24  39 SW3       30.34F
$$

ILZ064>066-069>071-074>076-080>082-084>086-088>090-092>094-061800-
SOUTH-CENTRAL ILLINOIS

CITY           SKY/WX    TMP DP  RH WIND       PRES   REMARKS
CARBONDALE     SUNNY     48  22  35 SW5       30.35S
CAIRO*         SUNNY     45  31  58 SW6       30.37F
EFFINGHAM*     SUNNY     42  31  66 E5        30.34F
MARION         SUNNY     50  25  37 W6        30.35F
MT. VERNON     SUNNY     43  28  56 CALM      30.34F
CENTRALIA*     SUNNY     44  31  61 S3        30.33S
SALEM*         SUNNY     44  28  52 CALM      30.33S
METROPOLIS*    SUNNY     49  30  48 SW7       30.37F
$$

ILZ067-068-072-073-078-083-087-091-061800-
SOUTHEAST ILLINOIS

CITY           SKY/WX    TMP DP  RH WIND       PRES   REMARKS
LAWRENCEVILLE  SUNNY     41  28  60 VRB5      30.35F
FLORA*         SUNNY     44  31  61 CALM      30.34F
FAIRFIELD*     SUNNY     42  30  62 S3        30.33F
HARRISBURG*    SUNNY     47  28  48 CALM      30.35F
ROBINSON*      SUNNY     40  27  59 SE3       30.36S
CARMI*         SUNNY     45  31  59 CALM      30.35F
$$

ABBREVIATIONS USED IN REMARKS
   TC - TEMPERATURE IN CELSIUS
  WCI - WIND CHILL INDEX
   HX - HEAT INDEX
  VSB - VISIBILITY
$$





USA.gov is the U.S. government's official web portal to all federal, state and local government web resources and services.